Location: Plainartige
(45.6866°N, 1.7993°E)
Time: 17:17:29
(UTC+00:00)

Envisat - Pass Details

Date: 18 January 2022
Orbit: 764 x 765 km, 98.2° (Epoch: 19 May)

Event Time Altitude Azimuth Distance (km) Brightness Sun altitude
Rises 04:14:38 0° 20° (NNE) 3,240 6.5 -33.3°
Reaches altitude 10° 04:17:06 10° 28° (NNE) 2,310 5.8 -32.9°
Maximum altitude 04:21:52 40° 97° (E) 1,123 4.2 -32.1°
Drops below altitude 10° 04:26:36 10° 167° (SSE) 2,294 5.6 -31.2°
Sets 04:29:02 0° 175° (S) 3,216 6.3 -30.8°
